Regional Weather Roundup
Issued by NWS

Home | Current Version | Previous Version | Graphics & Text | Print | Product List | Glossary On
Versions: 1 2 3 4 5 6 7 8 9 10 11 12 13 14 15 16 17 18 19 20 21 22 23 24 25 26 27 28 29 30 31 32 33 34 35 36 37 38 39 40 41 42 43 44 45 46 47 48 49 50
000
ASUS45 KPSR 221110
RWRAZ

ARIZONA HOURLY REGIONAL WEATHER ROUNDUP
NATIONAL WEATHER SERVICE PHOENIX AZ
400 AM MST SUN APR 22 2018

NOTE: FAIR INDICATES FEW OR NO CLOUDS BELOW 12,000 FEET WITH NO
SIGNIFICANT WEATHER AND/OR OBSTRUCTIONS TO VISIBILITY.

AZZ001>003-036-221200-
NORTHWEST ARIZONA

CITY           SKY/WX    TMP DP  RH WIND       PRES   REMARKS
BULLHEAD CITY  PTCLDY    72  19  14 NE5       29.88F
KINGMAN        PTCLDY    51  22  31 SE8       30.03S
$$

AZZ004>008-015-016-018-221200-
NORTH CENTRAL ARIZONA

CITY           SKY/WX    TMP DP  RH WIND       PRES   REMARKS
GRAND CANYON   MOCLDY    30  22  72 CALM      30.20S
WILLIAMS       PTCLDY    43  16  33 S9        30.17S
PRESCOTT       CLEAR     45  25  45 S7        30.11F
FLAGSTAFF      PTCLDY    28  16  60 CALM      30.21S
PAYSON         PTCLDY    48  18  29 CALM      30.11F
PAGE           CLEAR     51  28  41 SW3       30.10F
$$

AZZ009>014-017-221200-
NORTHEAST ARIZONA

CITY           SKY/WX    TMP DP  RH WIND       PRES   REMARKS
WINSLOW        CLEAR     37  22  54 CALM      30.14R
SAINT JOHNS    CLEAR     41  29  62 S6        30.15S
WINDOW ROCK    CLEAR     29  21  72 CALM      30.21F
SHOW LOW       CLEAR     39  23  52 CALM      30.19S
$$

AZZ540-542>544-546-548-221200-
GREATER PHOENIX AREA

CITY           SKY/WX    TMP DP  RH WIND       PRES   REMARKS
PHOENIX        MOCLDY    67  38  34 E5        29.88S
BUCKEYE        CLEAR     59  23  25 NW5       29.90S
LUKE AFB       CLEAR     62  33  33 N5        29.88F
DEER VALLEY    CLEAR     67  25  20 N8        29.90F
SCOTTSDALE     PTCLDY    64  36  35 CALM      29.91F
MESA-GATEWAY   PTCLDY    61  29  30 S7        29.91S
$$

AZZ539-553-221200-
SOUTHWEST MARICOPA COUNTY AND PINAL COUNTY

CITY           SKY/WX    TMP DP  RH WIND       PRES   REMARKS
CASA GRANDE    PTCLDY    63  30  28 CALM      29.92S
GILA BEND      FAIR      66  22  19 S9        29.87F
$$

AZZ503-504-507>509-221200-
SOUTHEAST ARIZONA

CITY           SKY/WX    TMP DP  RH WIND       PRES   REMARKS
TUCSON         PTCLDY    62  27  26 S3        29.98F
DAVIS-MONTHAN  CLOUDY    60  28  29 S6        29.96S
NOGALES        PTCLDY    54  28  36 CALM      30.03R
SIERRA VISTA   MOCLDY    56  22  26 S3        30.08F
DOUGLAS        MOCLDY    53  15  22 CALM      30.05F
SAFFORD        PTCLDY    55  22  27 CALM      30.00F
$$

AZZ532-221200-
SOUTHWEST ARIZONA

CITY           SKY/WX    TMP DP  RH WIND       PRES   REMARKS
YUMA             N/A     66  39  37 CALM      29.86S
$$

CAZ041-043-047-048-061-525>527-560>570-221200-
SOUTHERN CALIFORNIA

CITY           SKY/WX    TMP DP  RH WIND       PRES   REMARKS
DOWNTOWN L.A.  CLEAR     58  52  80 CALM      29.93F
L.A. AIRPORT   PTCLDY    58  53  84 CALM      29.94F
SAN DIEGO      PTCLDY    59  52  77 N3        29.96F
BURBANK        CLEAR     61  46  57 NW5       29.93F
ONTARIO        MOCLDY    60  46  59 CALM      29.95S
RIVERSIDE      PTCLDY    59  42  53 NE3       29.95S
PALM SPRINGS   PTCLDY    74  35  24 NW3       29.89S
EL CENTRO NAS  CLEAR     63  32  31 W7        29.86F
IMPERIAL       CLEAR     62  38  40 W7        29.84S
BLYTHE         CLEAR     69  25  19 W5        29.86S
NEEDLES        PTCLDY    70  18  13 W5        29.89S
$$

NVZ020-UTZ003-221200-
SOUTHERN NEVADA-UTAH

CITY           SKY/WX    TMP DP  RH WIND       PRES   REMARKS
LAS VEGAS      PTCLDY    66  26  22 SW6       29.98R
SALT LAKE CITY CLEAR     47  33  58 SE6       30.13F
$$

NMZ009-TXZ055-221200-
NEW MEXICO-WEST TEXAS

CITY           SKY/WX    TMP DP  RH WIND       PRES   REMARKS
ALBUQUERQUE    CLEAR     46  32  58 N7        30.18R
EL PASO        MOCLDY    56  29  35 SE5       30.10S
$$


........................KEY........................
SKY/WX - SKY CONDITION/WEATHER
TMP    - TEMPERATURE IN FAHRENHEIT
DP     - DEW POINT IN FAHRENHEIT
RH     - RELATIVE HUMIDITY IN PERCENT
WIND   - DIRECTION AND SPEED IN MILES PER HOUR (MPH)
VRB    - VARIABLE WIND DIRECTION
PRES   - MEAN SEA LEVEL PRESSURE IN INCHES OF MERCURY
         F - FALLING PRESSURE   R - RISING PRESSURE
         S - STEADY PRESSURE
VSB    - VISIBILITY IN MILES
HX     - HEAT INDEX IN FAHRENHEIT
WCI    - WIND CHILL INDEX IN FAHRENHEIT
TC     - TEMPERATURE IN CELSIUS WHICH IS ALSO KNOWN AS
         TEMPERATURE IN CENTIGRADE
AFB    - AIR FORCE BASE
         LUKE AFB IS LUKE AIR FORCE BASE
         DAVIS-MONTHAN IS DAVIS-MONTHAN AIR FORCE BASE
NAS    - NAVAL AIR STATION
         EL CENTRO NAS IS EL CENTRO NAVAL AIR STATION
N/A    - NOT AVAILABLE




USA.gov is the U.S. government's official web portal to all federal, state and local government web resources and services.